This demonstration page uses our WeatherBlox Daily Observations layout. Learn more.

Left ArrowRight Arrow

39.08367, -84.50855

Hourly Observations for July 2, 2020

Temp ( °F °C ) Dew Point ( °F °C ) Humidity (%) Winds ( mph kmh ) Pressure ( in mb ) Visibility ( mi km ) Precip ( " mm )
12:53 am 00:53 Clear 71 21.7 68 20 90 90 N N/A 29.92 1013 9 14 N/A
1:53 am 01:53 Clear 70 21.1 68 20 93 93 N N/A 29.93 1014 7 11 N/A
2:53 am 02:53 Clear with Mist and Fog 69 20.6 67 19.4 93 93 NE 3 6 29.93 1014 5 8 N/A
3:53 am 03:53 Clear with Mist and Fog 67 19.4 65 18.3 93 93 N N/A 29.95 1014 5 8 N/A
4:53 am 04:53 Clear with Mist and Fog 67 19.4 66 18.9 97 97 N N/A 29.96 1015 6 10 N/A
5:53 am 05:53 Clear with Mist and Fog 67 19.4 65 18.3 93 93 NE 3 6 29.97 1015 5 8 N/A
6:28 am 06:28 Sunny with Mist and Fog 66 18.9 64 17.8 93 93 N N/A 29.98 1015 2 2 N/A
6:40 am 06:40 Sunny with Mist and Fog 66 18.9 65 18.3 96 96 N N/A 29.98 1015 3 5 N/A
6:53 am 06:53 Sunny 65 18.3 65 18.3 100 100 N N/A 29.98 1015 10 16 N/A
7:53 am 07:53 Sunny 71 21.7 67 19.4 87 87 NNE 5 7 29.99 1016 10 16 N/A
8:53 am 08:53 Sunny 75 23.9 66 18.9 74 74 NE 6 9 30.00 1016 10 16 N/A
10:53 am 10:53 Sunny 82 27.8 67 19.4 60 60 ENE 7 11 30.01 1016 10 16 N/A
11:53 am 11:53 Partly Cloudy 85 29.4 66 18.9 53 53 VRB 5 7 30.00 1016 10 16 N/A
12:53 pm 12:53 Partly Cloudy 87 30.6 66 18.9 50 50 ENE 9 15 30.00 1016 10 16 N/A
1:53 pm 13:53 Partly Cloudy 87 30.6 63 17.2 45 45 E 6 9 29.99 1016 10 16 N/A
2:53 pm 14:53 Mostly Sunny 88 31.1 64 17.8 45 45 ENE 8 13 29.98 1015 10 16 N/A
3:53 pm 15:53 Mostly Sunny 88 31.1 63 17.2 43 43 VRB 3 6 29.98 1015 10 16 N/A
4:53 pm 16:53 Mostly Sunny 89 31.7 63 17.2 42 42 VRB 5 7 29.96 1015 10 16 N/A
5:53 pm 17:53 Mostly Sunny 88 31.1 62 16.7 42 42 VRB 3 6 29.96 1015 10 16 N/A
6:53 pm 18:53 Mostly Sunny 87 30.6 62 16.7 43 43 NE 5 7 29.96 1014 10 16 N/A
7:53 pm 19:53 Mostly Sunny 85 29.4 64 17.8 50 50 NE 6 9 29.95 1014 10 16 N/A
8:53 pm 20:53 Sunny 78 25.6 67 19.4 69 69 N N/A 29.96 1015 10 16 N/A
9:53 pm 21:53 Clear 74 23.3 66 18.9 76 76 N N/A 29.96 1014 10 16 N/A
10:53 pm 22:53 Clear 71 21.7 65 18.3 81 81 N N/A 29.98 1015 10 16 N/A
11:53 pm 23:53 Clear 69 20.6 65 18.3 87 87 N N/A 29.99 1016 10 16 N/A

Powered by AerisWeather